Regional Weather Roundup
Issued by NWS New Orleans/Baton Rouge, LA

Home | Current Version | Previous Version | Graphics & Text | Print | Product List | Glossary On
Versions: 1 2 3 4 5 6 7 8 9 10 11 12 13 14 15 16 17 18 19 20 21 22 23 24 25 26 27 28 29 30 31 32 33 34 35 36 37 38 39 40 41 42 43 44 45 46 47 48 49 50
332
ASUS44 KLIX 202001
RWRLIX
NEW ORLEANS REGIONAL WEATHER ROUNDUP
NATIONAL WEATHER SERVICE NEW ORLEANS LA
200 PM CST SAT DEC 20 2014

NOTE: "FAIR" INDICATES FEW OR NO CLOUDS BELOW 12,000 FEET WITH NO
      SIGNIFICANT WEATHER AND/OR OBSTRUCTIONS TO VISIBILITY.
      SKY/WX - SKY CONDITION AND SIGNIFICANT WEATHER.
      TMP - AIR TEMPERATURE.     DP    - DEWPOINT TEMPERATURE.
      RH  - RELATIVE HUMIDITY.   PRES  - PRESSURE.
      HI  - HEAT INDEX.          WCI   - WIND CHILL INDEX.

*  THESE STATIONS ARE NOT NWS OR FAA STATIONS AND ARE NOT UNDER
   NWS QUALITY CONTROL.

LAZ038-040-048-061>063-065>067-069-202100-
SOUTHEAST LOUISIANA

CITY           SKY/WX    TMP DP  RH WIND       PRES   REMARKS
N.O. AUDUBON     N/A     56  50  80 MISG        N/A
N.O. INTL ARPT CLOUDY    53  48  83 N12       30.11S
N.O. LAKEFRONT CLOUDY    56  48  74 N14       30.11F
N.O. DOWNTOWN* CLOUDY    54  46  76 N9        30.11S
SLIDELL        CLOUDY    53  47  79 NE13      30.10F
BATON ROUGE    CLOUDY    51  47  86 MISG      30.13F
BOOTHVILLE     CLOUDY    55  53  93 N12G18    30.07F
BELLE CHASSE   CLOUDY    55  49  80 N9        30.09F
BOGALUSA*        N/A     52  47  81 NE8       30.14F
GALLIANO*      NOT AVBL
NEW ROADS*     NOT AVBL
GONZALES*      NOT AVBL
HAMMOND*       NOT AVBL
HOUMA*         CLOUDY    52  50  93 N9        30.09F
PORT FOURCHON* CLOUDY    55  52  88 NE20G26   30.09F

$$

MSZ070-080>082-202100-
SOUTHERN MISSISSIPPI

CITY           SKY/WX    TMP DP  RH WIND       PRES   REMARKS
MCCOMB         CLOUDY    49  44  83 N7        30.14F
GULFPORT       CLOUDY    53  48  83 NE12      30.09F
BILOXI         CLOUDY    53  49  89 N9        30.10R
PASCAGOULA     CLOUDY    51  48  89 N13       30.10S
STENNIS ARPT*  CLOUDY    54  45  71 N10       30.11S

$$

COASTAL OBSERVATIONS
LAKE AND NEARSHORE STATIONS

STATION/POSITION TIME  TEMP    WIND        PRES    WAVE
                       AIR SEA DIR/SP/G            HT/PER
                 (UTC) (F)     (DEG/KT/KT) (MB)    (FT/S)
PASCAGOULA       1900   52      20/  9/ 12 1018.6
WAVELAND YACHT   1900   52      10/ 11/ 13 1018.3
GRAND ISLE       1900   54 60   40/  9/ 15 1018.9
SOUTHWEST PASS   1900   57                 1018.0
NEW CANAL        1900   53 56   10/ 11/ 13 1019.7
SHELL BEACH      1900   53 58   10/ 11/ 14 1018.9

OFFSHORE STATIONS

STATION/POSITION TIME  TEMP    WIND        PRES    WAVE
                       AIR SEA DIR/SP/G            HT/PER
                 (UTC) (F)     (DEG/KT/KT) (MB)    (FT/S)
64 S DAUPHIN ISL 2000   64 74   60/ 21/ 23 1016.1    8/ 7

$$




USA.gov is the U.S. government's official web portal to all federal, state and local government web resources and services.